Regional Weather Roundup
Issued by NWS Northern Indiana

Home | Current Version | Previous Version | Graphics & Text | Print | Product List | Glossary On
Versions: 1 2 3 4 5 6 7 8 9 10 11 12 13 14 15 16 17 18 19 20 21 22 23 24 25 26 27 28 29 30 31 32 33 34 35 36 37 38 39 40 41 42 43 44 45 46 47 48 49 50
000
ASUS43 KIWX 311300
RWRIWX

KIWX WEATHER ROUNDUP
NATIONAL WEATHER SERVICE NORTHERN INDIANA
800 AM EST SAT JAN 31 2015

NOTE: "FAIR" INDICATES FEW OR NO CLOUDS BELOW 12,000 FEET WITH NO
SIGNIFICANT WEATHER AND/OR OBSTRUCTIONS TO VISIBILITY.

* THESE STATIONS ARE NOT UNDER NWS QUALITY CONTROL. THEY ALSO MAY NOT
  REPORT WEATHER SUCH AS PRECIPITATION OR FOG.

INZ001>027-311400-
NORTHERN INDIANA

CITY           SKY/WX    TMP DP  RH WIND       PRES   REMARKS
GARY*          PTCLDY    27  19  74 VRB3      30.28S
SOUTH BEND     CLEAR     22  16  78 SW9       30.28R WCI  12
ELKHART*       PTCLDY    21  14  73 SW3       30.28
GOSHEN         CLEAR     21  16  81 S8        30.28S WCI  11
ANGOLA*        CLEAR     16  12  86 CALM      30.27R
FORT WAYNE     MOCLDY    20  16  84 SW8       30.31S WCI  10
PERU/GRISSOM   MOCLDY    20  17  85 S8        30.30S WCI  11

$$
INZ028>050-311400-
CENTRAL INDIANA

CITY           SKY/WX    TMP DP  RH WIND       PRES   REMARKS
LAFAYETTE      PTCLDY    22  16  78 SW3       30.32F
KOKOMO*        PTCLDY    21  18  86 S5        30.32S WCI  15
MUNCIE*        CLOUDY    22  16  78 S6        30.32S WCI  14
INDIANAPOLIS   PTCLDY    18  14  84 S5        30.34S WCI  11

$$
MIZ043>046-050>051-056>058-064>065-071>073-077>080-311400-
SOUTHWEST LOWER MICHIGAN

CITY           SKY/WX    TMP DP  RH WIND       PRES   REMARKS
BATTLE CREEK   CLEAR     16  12  84 S5        30.25S WCI   9
BENTON HARBOR  CLEAR     19  16  88 S6        30.26S WCI  11
COLDWATER*     PTCLDY    19  14  82 SW6       30.26S WCI  10
HILLSDALE*     PTCLDY    17  14  88 CALM      30.25R
HOLLAND        PTCLDY    23  18  81 S8        30.23F WCI  14
GRAND RAPIDS   MOCLDY    20  15  81 S12       30.22F WCI   8
KALAMAZOO      CLEAR     16  12  84 S5        30.26S WCI   9
STURGIS*       CLEAR     16  14  93 CALM      30.26S
THREE RIVERS*  FAIR      16  13  88 SW3       30.27S

$$
OHZ001>008-015>018-024>025-311400-
NORTHWEST OHIO

CITY           SKY/WX    TMP DP  RH WIND       PRES   REMARKS
DEFIANCE       MOCLDY    18  13  80 S6        30.32F WCI  10
FINDLAY        CLOUDY    16  10  77 S9        30.31F WCI   4
TOLEDO EXPRESS CLOUDY    17  13  84 SW6       30.31F WCI   9
TOLEDO METCALF CLOUDY    18  12  77 SW9       30.32F WCI   7
LIMA           CLOUDY    18  11  74 S8        30.32R WCI   8

$$
AND FOR LAKE MICHIGAN COASTAL AND OPEN LAKE BUOY OBSERVATIONS

STATION/POSITION TEMP    WIND        PRES    VSBY  WAVE
                 AIR SEA DIR/SP/G                  HT/PER
                 (F)     (DEG/KT/KT) (MB)    (MI)  (FT/S)
CALUMET HARBOR    26     210/  8/ 11   N/A
MICHIGAN CITY     24     160/ 11/ 15   N/A
SAINT JOSEPH      23     150/  6/ 13 1024.7F

$$
&&



USA.gov is the U.S. government's official web portal to all federal, state and local government web resources and services.